Location: Loc-Maria-Plouzan�
(48.3747°N, 4.6432°W)
Time: 07:37:24
(UTC+00:00)

Daily predictions for brighter satellites

Satellite Brightness Start Highest point End
(mag) Time Altitude Azimuth Time Altitude Azimuth Time Altitude Azimuth
NOSS 2-3 (C) 4.1 20:40:59 10° S 20:45:00 41° ESE 20:49:41 10° NE
Cosmos 1140 Rocket 3.7 20:40:04 10° NNW 20:45:14 64° ENE 20:50:25 10° SE
Cosmos 614 Rocket 4.1 20:40:50 10° NNW 20:45:55 80° WSW 20:51:01 10° SSE
ERBS 4.2 20:44:53 10° SSE 20:46:16 12° SE 20:47:39 10° E
STARLINK-1154 4.2 20:42:55 10° SSW 20:46:43 36° SE 20:50:31 10° ENE
STARLINK-1069 3.7 20:44:02 10° WNW 20:48:12 84° NNE 20:52:22 10° ESE
COSMOS 2406 3.4 20:43:09 10° NNW 20:48:55 65° ENE 20:54:38 10° SE
CZ-2C R/B 4.0 20:44:48 10° N 20:49:15 73° WNW 20:53:44 10° SSW
Cosmos 1844 3.9 20:45:11 10° SSW 20:50:52 82° WNW 20:56:39 10° NNE
ATLAS CENTAUR R/B 2.6 20:48:52 10° WSW 20:51:32 33° NW 20:53:21 10° NE
STARLINK-1197 4.1 20:47:47 10° SSW 20:51:38 39° SE 20:55:30 10° ENE
Crew Dragon 1.5 20:50:40 10° WNW 20:52:36 32° N 20:54:38 10° ENE
STARLINK-1085 3.6 20:49:04 10° WNW 20:53:14 89° NNE 20:57:23 10° ESE
Meteor 2-4 Rocket 4.2 20:49:06 10° SSE 20:54:00 37° E 20:58:54 10° NNE
IGS 5A 4.1 20:51:24 10° SE 20:55:20 43° ENE 20:59:17 10° N
Cosmos 1371 Rocket 4.1 20:50:20 10° S 20:55:30 60° ESE 21:00:39 10° NNE
STARLINK-1198 4.0 20:52:40 10° SSW 20:56:34 41° SE 21:00:29 10° ENE
Cosmos 724 4.4 20:51:04 10° NW 20:56:58 82° SW 21:02:56 10° SSE
Cosmos 2084 Rocket 3.7 20:53:26 10° SW 20:57:43 75° NW 21:02:06 10° NE
STARLINK-1086 3.6 20:54:02 10° WNW 20:58:12 87° SSW 21:02:21 10° ESE
SL-8 R/B 3.7 20:54:19 10° WSW 20:59:07 78° SSE 21:03:57 10° E
Okean 3 4.3 20:55:53 10° SSE 20:59:44 34° E 21:03:38 10° NNE
STARLINK-1094 4.5 20:56:15 10° WNW 21:00:18 49° NNE 21:04:21 10° E
STARLINK-1199 3.9 20:57:36 10° SW 21:01:32 45° SE 21:05:31 10° ENE
MetOp-B 4.2 20:57:41 10° SSE 21:03:02 81° ENE 21:08:25 10° NNW
STARLINK-1095 3.6 20:59:01 10° WNW 21:03:11 82° SSW 21:07:13 11° ESE
STARLINK-1087 4.4 21:02:40 10° WSW 21:03:37 12° SW 21:04:36 10° SSW
Cosmos 1954 Rocket 4.2 20:58:29 10° NNW 21:03:41 60° ENE 21:08:46 11° SE
Cosmos 1544 3.0 21:01:23 10° N 21:05:03 84° E 21:08:41 10° S
ERS-1 Rocket 3.7 21:00:26 10° SE 21:05:04 39° ENE 21:09:43 10° N
STARLINK-1117 4.4 21:01:14 10° WNW 21:05:18 50° NNE 21:09:21 10° E
STARLINK-1210 3.8 21:02:32 10° SW 21:06:31 48° SE 21:10:31 10° ENE
Cosmos 1300 Rocket 4.3 21:02:20 10° N 21:06:31 39° ENE 21:10:24 12° SE
SAR-Lupe-2 4.0 21:04:01 10° NNE 21:07:29 42° E 21:10:54 10° S
STARLINK-1077 3.6 21:03:59 10° WNW 21:08:08 77° SSW 21:11:59 12° SE
STARLINK-1078 4.4 21:06:13 10° WNW 21:10:18 52° NNE 21:14:21 10° E
ISS -3.1 21:07:45 10° WNW 21:11:04 54° NNE 21:14:24 10° E
STARLINK-1219 3.7 21:07:26 10° SW 21:11:27 52° SE 21:15:30 10° ENE
Okean 1-7 3.3 21:07:42 10° SSW 21:11:59 72° W 21:16:16 10° N
STARLINK-1075 3.7 21:08:58 10° WNW 21:13:06 73° SSW 21:16:46 13° SE
Spot 2 Rocket 3.5 21:08:15 10° SSE 21:13:17 81° ENE 21:18:22 10° NNW
Cosmos 1743 4.2 21:11:13 10° NNW 21:14:44 35° W 21:18:12 10° SSW
STARLINK-1108 4.3 21:11:12 10° WNW 21:15:17 53° NNE 21:19:22 10° E
STARLINK-1211 3.7 21:12:21 10° SW 21:16:24 56° SSE 21:20:29 10° ENE
Cosmos 676 Rocket 4.0 21:11:56 10° NNW 21:17:12 79° ENE 21:22:01 12° SSE
STARLINK-1093 3.7 21:13:58 10° WNW 21:18:06 68° SSW 21:21:35 14° SE
USA 245 2.8 21:15:37 11° SSE 21:19:08 85° ENE 21:22:05 10° NNW
Cosmos 389 Rocket 4.0 21:16:04 10° SW 21:19:19 37° WNW 21:22:37 10° N
Aureole 1 Rocket 3.6 21:16:17 10° NNW 21:20:16 61° WSW 21:25:28 10° S
STARLINK-1071 4.2 21:16:12 10° WNW 21:20:17 55° NNE 21:24:23 10° E
Cosmos 2221 Rocket 3.8 21:16:28 10° S 21:20:50 53° E 21:25:16 10° NNE
STARLINK-1245 3.6 21:17:19 10° SW 21:21:23 60° SSE 21:25:29 10° ENE
STARLINK-1234 3.4 21:19:17 10° WSW 21:22:22 61° NNW 21:25:29 10° ENE
STARLINK-1074 3.7 21:18:56 10° WNW 21:23:03 64° SSW 21:26:20 15° SE
STARLINK-1212 3.1 21:20:31 10° WSW 21:23:37 73° NNW 21:26:44 10° ENE
Cosmos 2056 Rocket 3.4 21:18:54 10° SSW 21:24:00 87° ESE 21:29:10 10° NNE
STARLINK-1105 3.1 21:20:58 10° WSW 21:24:04 73° NNW 21:27:10 10° ENE
STARLINK-1110 4.2 21:20:21 10° WNW 21:24:27 57° NNE 21:28:32 10° E
STARLINK-1247 3.1 21:21:52 10° WSW 21:24:59 72° NNW 21:28:06 10° ENE
Cosmos 2082 Rocket 2.7 21:19:46 10° NNW 21:25:23 52° NE 21:30:10 14° SE
STARLINK-1227 3.1 21:22:20 10° WSW 21:25:26 72° NNW 21:28:32 10° ENE
Terra 2.7 21:21:43 13° SE 21:25:28 36° ENE 21:29:48 10° N
STARLINK-1226 3.1 21:23:13 10° WSW 21:26:19 71° NNW 21:29:26 10° ENE
STARLINK-1233 3.6 21:22:15 10° SW 21:26:22 64° SSE 21:30:28 10° ENE
STARLINK-1215 3.2 21:24:08 10° WSW 21:27:14 70° NNW 21:30:21 10° ENE
STARLINK-1209 3.7 21:24:33 10° W 21:27:41 56° NNW 21:30:50 10° ENE
Lacrosse 5 2.2 21:22:46 10° NW 21:27:49 65° NNE 21:32:31 12° ESE
Resurs 01 Rocket 3.0 21:24:32 10° SSW 21:28:38 36° W 21:32:46 10° NNW
STARLINK-1217 3.2 21:25:55 10° WSW 21:29:01 68° NNW 21:32:08 10° ENE
STARLINK-1229 3.2 21:26:49 10° WSW 21:29:55 67° NNW 21:33:02 10° ENE
Abrixas rocket 1.8 21:27:01 10° W 21:29:59 86° S 21:32:56 10° E
STARLINK-1124 4.1 21:26:09 10° WNW 21:30:16 60° NNE 21:34:22 10° E
STARLINK-1270 3.2 21:27:43 10° WSW 21:30:49 67° NNW 21:33:56 10° ENE
STARLINK-1204 3.5 21:27:13 10° SW 21:31:21 69° SSE 21:35:28 10° ENE
Sich 1 Rocket 4.0 21:27:11 10° NNW 21:31:45 67° W 21:36:18 10° S
Cosmos 1833 Rocket 2.7 21:26:19 10° NNW 21:31:59 86° ENE 21:36:38 15° SSE
STARLINK-1228 3.8 21:28:42 10° W 21:32:00 55° NNW 21:35:19 10° ENE
STARLINK-1189 3.3 21:29:32 10° WSW 21:32:38 65° NNW 21:35:45 10° ENE
STARLINK-1088 3.9 21:28:55 10° WNW 21:33:00 55° SSW 21:35:55 18° SE
STARLINK-1188 3.3 21:30:27 10° WSW 21:33:32 64° NNW 21:36:39 10° ENE
STARLINK-1235 3.6 21:31:10 10° W 21:34:13 55° NNW 21:37:16 10° ENE
STARLINK-1187 3.5 21:31:35 10° WSW 21:34:38 58° NNW 21:37:42 10° ENE
CZ-2C R/B 4.2 21:29:30 10° N 21:34:39 39° WNW 21:39:49 10° SW
STARLINK-1122 4.0 21:31:08 10° WNW 21:35:16 62° NNE 21:39:20 10° E
GENESIS II 4.3 21:31:53 10° NW 21:35:55 71° SW 21:38:44 18° SSE
STARLINK-1191 3.4 21:32:55 10° WSW 21:36:00 62° NNW 21:39:05 10° ENE
STARLINK-1238 3.5 21:32:10 10° SW 21:36:18 73° SSE 21:40:27 10° ENE
STARLINK-1221 3.4 21:33:47 10° WSW 21:36:51 61° NNW 21:39:56 10° ENE
STARLINK-1222 3.4 21:34:42 10° WSW 21:37:46 61° NNW 21:40:51 10° ENE
STARLINK-1115 4.0 21:33:54 10° WNW 21:37:56 51° SW 21:40:41 19° SE
STARLINK-1214 3.4 21:35:36 10° WSW 21:38:40 60° NNW 21:41:45 10° ENE
NOSS 3 (A) 4.5 21:36:06 10° SSW 21:38:42 50° SE 21:41:35 10° NE
STARLINK-1126 3.9 21:36:02 10° WNW 21:40:11 65° NNE 21:44:02 12° ESE
Cosmos 1975 4.2 21:36:31 10° NNW 21:40:17 37° W 21:44:01 10° SSW
STARLINK-1201 3.5 21:37:08 10° WSW 21:41:16 78° SSE 21:45:25 10° ENE
STARLINK-1076 4.1 21:38:55 10° WNW 21:42:54 48° SW 21:45:28 20° SSE
Cosmos 371 Rocket 3.6 21:38:45 11° S 21:43:11 47° ESE 21:47:52 10° NNE
NOSS 2-3 (E) 4.1 21:40:19 10° SW 21:44:38 70° NW 21:49:54 10° NE
STARLINK-1082 3.9 21:41:06 10° WNW 21:45:15 68° NNE 21:48:53 13° ESE
STARLINK-1206 3.5 21:42:06 10° WSW 21:46:15 83° SSE 21:50:25 10° ENE
Okean 2 Rocket 3.2 21:42:47 10° NNW 21:47:14 74° W 21:50:52 15° S
Cosmos 2279 Rocket 4.0 21:41:13 10° N 21:47:30 90° WSW 21:52:56 14° S
STARLINK-1092 4.2 21:43:53 10° WNW 21:47:51 44° SW 21:50:14 21° SSE
STARLINK-1216 4.5 21:45:16 10° SSW 21:48:49 28° SE 21:52:22 10° ENE
Cosmos 1943 Rocket 4.0 21:48:17 11° ESE 21:49:28 12° E 21:51:21 10° ENE
STARLINK-1100 3.8 21:46:04 10° WNW 21:50:14 71° NNE 21:53:40 15° ESE
STARLINK-1205 3.5 21:47:05 10° WSW 21:51:14 88° SSE 21:55:24 10° ENE
STARLINK-1080 4.3 21:48:56 10° WNW 21:52:51 41° SW 21:55:03 22° SSE
STARLINK-1237 4.4 21:50:08 10° SSW 21:53:46 30° SE 21:57:25 10° ENE
Cosmos 1452 Rocket 3.6 21:49:42 10° S 21:54:53 61° ESE 22:00:07 10° NNE
STARLINK-1083 3.7 21:51:03 10° WNW 21:55:12 75° NNE 21:58:26 16° ESE
STARLINK-1218 3.6 21:52:02 10° WSW 21:56:11 88° NNW 22:00:21 10° ENE
STARLINK-1090 4.4 21:53:54 10° WNW 21:57:46 38° SW 21:59:49 23° SSE
STARLINK-1202 4.3 21:55:01 10° SSW 21:58:43 32° SE 22:02:27 10° ENE
Cosmos 2278 Rocket 2.3 21:54:27 10° SSW 22:00:08 84° WNW 22:05:52 10° NNE
STARLINK-1125 3.7 21:56:02 10° WNW 22:00:12 79° NNE 22:03:13 18° ESE
Cosmos 2151 Rocket 3.7 21:55:57 10° NNW 22:00:30 77° W 22:03:45 19° S
Cosmos 1420 Rocket 4.0 21:55:22 10° SSW 22:00:35 87° WNW 22:05:49 10° NNE
STARLINK-1254 3.6 21:57:01 10° WSW 22:01:10 83° NNW 22:05:20 10° ENE
Okean 1 Rocket 3.4 21:57:49 10° N 22:02:14 53° ENE 22:04:43 24° SE
STARLINK-1089 4.5 21:58:56 10° WNW 22:02:44 35° SW 22:04:36 23° S
SPOT 5 3.1 22:00:51 19° S 22:04:39 79° WSW 22:10:00 10° NNW
SL-4 R/B 1.2 22:01:31 10° NW 22:04:44 75° SW 22:05:51 35° SSE
Cosmos 1437 Rocket 2.6 22:02:48 22° S 22:05:05 68° E 22:08:53 10° NNE
STARLINK-1109 3.6 22:01:00 10° WNW 22:05:10 83° NNE 22:07:59 20° ESE
STARLINK-1231 3.7 22:02:02 10° WSW 22:06:11 79° NNW 22:10:20 10° ENE
USA 215 3.6 22:01:28 10° ESE 22:07:56 64° NNE 22:14:24 10° NW
STARLINK-1246 4.1 22:04:46 10° SSW 22:08:36 37° SE 22:12:27 10° ENE
STARLINK-1091 3.6 22:05:59 10° WNW 22:10:09 87° NNE 22:12:46 22° ESE
STARLINK-1232 3.8 22:07:01 10° WSW 22:11:09 75° NNW 22:15:19 10° ENE
STARLINK-1224 4.0 22:09:42 10° SSW 22:13:35 40° SE 22:17:29 10° ENE
STARLINK-1072 3.5 22:10:58 10° WNW 22:15:08 89° SSW 22:17:34 24° ESE
STARLINK-1208 3.9 22:12:00 10° WSW 22:16:08 72° NNW 22:20:17 10° ENE
STARLINK-1225 3.9 22:14:35 10° SW 22:18:31 44° SE 22:22:28 10° ENE
deb Kosmos-1763 4.4 22:15:32 10° NNW 22:19:04 51° ENE 22:20:28 31° ESE
STARLINK-1096 3.5 22:15:58 10° WNW 22:20:08 84° SSW 22:22:22 26° ESE
Cosmos 1092 Rocket 4.4 22:17:02 23° SSE 22:20:33 46° E 22:26:22 10° NNE
STARLINK-1271 3.9 22:17:00 10° WSW 22:21:08 69° NNW 22:25:16 10° ENE
ERBS 2.1 22:18:45 10° SW 22:22:03 89° SSE 22:25:23 10° NE
STARLINK-1104 4.5 22:18:11 10° WNW 22:22:14 50° NNE 22:26:17 10° E
STARLINK-1230 3.8 22:19:31 10° SW 22:23:30 47° SE 22:27:29 10° ENE
BREEZE-M DEB (TANK) 4.0 22:06:13 10° SW 22:23:40 63° SSE 22:27:59 10° ENE
Aureole 2 Rocket 2.8 22:23:49 36° ESE 22:23:58 37° ESE 22:26:52 10° NE
CARTOSAT-1 4.4 22:22:01 18° SSW 22:24:53 43° W 22:29:01 10° NNW
STARLINK-1079 3.5 22:20:58 10° WNW 22:25:07 79° SSW 22:27:08 29° SE
STARLINK-1154 4.0 22:22:01 10° WSW 22:26:09 65° NNW 22:30:17 10° ENE
BREEZE-M DEB (TANK) 4.3 22:24:53 27° SSE 22:26:10 30° ESE 22:34:58 10° ENE
Crew Dragon 0.8 22:24:15 10° WNW 22:25:55 44° W 22:25:55 44° W
Cosmos 1741 Rocket 4.1 22:21:33 10° NNW 22:26:46 72° WSW 22:29:43 26° S
STARLINK-1144 4.4 22:23:11 10° WNW 22:27:15 51° NNE 22:31:18 10° E
Cosmos 1766 3.7 22:23:40 10° N 22:27:33 49° ENE 22:29:02 32° SE
EXPRESS MD2 4.1 22:24:50 11° SW 22:28:16 46° SE 22:35:17 10° ENE
STARLINK-1243 3.7 22:24:27 10° SW 22:28:27 51° SE 22:32:29 10° ENE
Cosmos 304 Rocket 3.8 22:26:45 25° S 22:29:25 60° ESE 22:34:09 10° NNE
CENTAUR R/B 4.1 22:22:40 10° NW 22:29:54 42° NNE 22:37:58 10° E
STARLINK-1116 3.5 22:25:56 10° WNW 22:30:04 75° SSW 22:31:55 32° SE
NOSS 2-2 (E) 4.1 22:30:15 29° ESE 22:30:15 29° ESE 22:33:37 10° ENE
STARLINK-1197 4.1 22:27:00 10° W 22:31:07 63° NNW 22:35:14 10° ENE
STARLINK-1103 4.3 22:28:10 10° WNW 22:32:15 53° NNE 22:36:10 11° E
STARLINK-1236 3.6 22:29:23 10° SW 22:33:25 54° SE 22:37:28 10° ENE
STARLINK-1198 4.2 22:31:59 10° W 22:36:06 60° NNW 22:40:12 10° ENE
Cosmos 332 Rocket 3.9 22:32:05 14° SSW 22:36:20 80° WNW 22:41:16 10° NNE
STARLINK-1101 4.3 22:33:09 10° WNW 22:37:14 55° NNE 22:40:56 12° E
NOSS 8 (E) 4.0 22:37:22 42° SSW 22:38:14 70° SE 22:41:16 10° NE
Meteor 1-23 Rocket 4.3 22:34:30 18° SSW 22:38:49 83° WNW 22:44:31 10° N
STARLINK-1094 3.6 22:35:55 10° WNW 22:40:02 65° SSW 22:41:30 37° SE
Cosmos 1850 Rocket 4.5 22:34:56 10° NNW 22:40:08 55° WSW 22:43:03 25° S
Cosmos 1733 3.5 22:37:05 10° N 22:40:50 53° ENE 22:41:59 37° SE
STARLINK-1199 4.2 22:37:00 10° W 22:41:05 58° NNW 22:45:12 10° ENE
SL-8 R/B 3.6 22:36:51 10° W 22:41:42 89° SSW 22:46:22 11° E
Cosmos 1242 Rocket 4.3 22:41:38 18° E 22:41:50 19° E 22:44:26 10° NE
STARLINK-1102 4.2 22:38:08 10° WNW 22:42:14 57° NNE 22:45:43 14° E
ALOS 2 4.2 22:40:11 18° ESE 22:42:18 25° ENE 22:45:53 10° N
SeaSat 1 2.5 22:37:26 10° NE 22:42:19 57° ESE 22:44:46 28° S
STARLINK-1269 3.5 22:39:14 10° SW 22:43:19 63° SSE 22:47:25 10° ENE
ERS-1 Rocket 4.3 22:40:21 14° SSW 22:43:55 31° W 22:48:25 10° NNW
STARLINK-1117 3.7 22:40:54 10° WNW 22:45:00 61° SSW 22:46:16 40° SSE
BREEZE M DEB (TANK) 1.9 22:41:02 10° WSW 22:45:01 66° SSE 22:45:07 65° SE
STARLINK-1210 4.3 22:42:01 10° W 22:46:07 56° NNW 22:50:12 10° ENE
STARLINK-1111 4.1 22:43:08 10° WNW 22:47:15 59° NNE 22:50:31 15° E
ISS -3.5 22:44:37 10° WNW 22:47:52 48° SSW 22:48:01 48° SSW
STARLINK-1200 3.5 22:44:12 10° SW 22:48:19 67° SSE 22:52:26 10° ENE
Cosmos 1110 Rocket 3.9 22:46:21 27° S 22:49:13 71° ESE 22:54:24 10° NNE
Cosmos 1461 2.9 22:47:43 35° S 22:49:16 60° ESE 22:53:34 10° NE
Cosmos 1544 Rocket 4.5 22:45:55 10° N 22:49:56 36° ENE 22:51:28 27° ESE
STARLINK-1078 3.7 22:45:53 10° WNW 22:49:57 57° SW 22:51:03 42° SSE
STARLINK-1219 4.4 22:47:00 10° W 22:51:05 54° NNW 22:55:10 10° ENE
STARLINK-1073 4.0 22:48:07 10° WNW 22:52:15 61° NNE 22:55:18 17° E
Meteor 1-22 Rocket 4.3 22:46:53 10° N 22:52:56 82° ENE 22:55:56 31° SSE
NOSS 2-2 (C) 3.6 22:53:12 38° ESE 22:53:12 38° ESE 22:56:47 10° NE
STARLINK-1192 3.5 22:49:10 10° SW 22:53:17 72° SSE 22:57:25 10° ENE
ATLAS 2AS CENTAUR R/B 4.3 22:51:57 19° SE 22:54:03 21° ESE 22:59:40 10° ENE
STARLINK-1108 3.8 22:50:53 10° WNW 22:54:55 53° SW 22:55:50 43° S
STARLINK-1211 4.5 22:52:00 10° W 22:56:04 52° NNW 23:00:08 10° ENE
STARLINK-1121 4.0 22:53:05 10° WNW 22:57:12 64° NNE 23:00:03 19° E
Cosmos 2297 3.6 22:53:22 20° SSW 22:57:25 85° ESE 23:03:10 10° NNE
STARLINK-1244 3.4 22:54:07 10° SW 22:58:15 77° SSE 23:02:24 10° ENE
NOSS 3-2 (A) 4.2 22:52:03 10° NW 22:59:25 71° NE 23:05:46 19° SE
STARLINK-1071 3.9 22:55:52 10° WNW 22:59:53 49° SW 23:00:36 43° S
STARLINK-1106 3.9 22:58:04 10° WNW 23:02:13 67° NNE 23:04:51 21° E
STARLINK-1138 3.5 22:59:04 10° WSW 23:03:13 81° SSE 23:07:22 10° ENE
Terra 3.1 23:00:36 19° SW 23:03:14 31° W 23:07:29 10° NNW
STARLINK-1110 3.9 23:00:02 10° WNW 23:04:00 46° SW 23:04:35 43° S
Abrixas rocket 2.2 23:02:33 10° W 23:05:01 57° W 23:05:01 57° W
STARLINK-1112 3.8 23:03:04 10° WNW 23:07:13 70° NNE 23:09:38 24° ESE
Cosmos 1553 Rocket 4.3 23:01:10 10° N 23:07:24 57° ENE 23:10:34 29° SE
USA 238 DEB 3.9 23:00:14 10° NW 23:07:26 76° NE 23:12:35 22° SE
USA 238 4.0 23:00:19 10° NW 23:07:31 75° NE 23:12:43 22° SE
STARLINK-1143 3.5 23:04:03 10° WSW 23:08:12 86° SSE 23:12:22 10° ENE
STARLINK-1203 3.5 23:04:39 10° WSW 23:08:52 87° SSE 23:13:05 10° ENE
Cosmos 2082 Rocket 3.5 23:04:19 10° NW 23:09:12 30° WSW 23:12:01 20° SSW
STARLINK-1124 4.0 23:05:52 10° WNW 23:09:48 42° SW 23:10:09 41° SSW
Cosmos 1470 3.3 23:06:07 10° N 23:09:53 45° ENE 23:10:45 38° ESE
Lacrosse 5 2.8 23:06:04 10° WNW 23:10:33 33° SW 23:11:42 29° SSW
Cosmos 1331 Rocket 3.9 23:08:59 26° SSW 23:11:56 84° WNW 23:17:09 10° NNE
Spot 4 3.8 23:10:10 38° SSE 23:12:06 89° ENE 23:17:00 10° NNW
STARLINK-1128 3.7 23:08:03 10° WNW 23:12:12 73° NNE 23:14:26 26° ESE
Cosmos 2026 Rocket 4.0 23:09:19 30° S 23:12:40 82° E 23:19:02 10° N
EO 1 Del DPAF 3.1 23:09:00 10° NNE 23:12:48 90° WSW 23:13:46 49° SSW
STARLINK-1241 3.5 23:09:01 10° WSW 23:13:11 89° NNW 23:17:21 10° ENE
STARLINK-1122 4.2 23:10:53 10° WNW 23:14:45 39° SW 23:14:57 39° SSW
Cosmos 1805 4.2 23:12:53 10° NNW 23:16:34 39° W 23:17:46 31° SW
Cosmos 1302 Rocket 4.1 23:15:08 37° S 23:17:06 60° ESE 23:22:19 10° NNE
STARLINK-1113 3.7 23:13:01 10° WNW 23:17:11 77° NNE 23:19:12 29° ESE
Cosmos 1378 4.1 23:16:07 28° SW 23:17:36 42° WNW 23:21:10 10° N
STARLINK-1239 3.6 23:14:01 10° WSW 23:18:10 85° NNW 23:22:20 10° ENE
Cosmos 1975 Rocket 3.1 23:17:49 38° SSW 23:19:29 78° W 23:23:57 10° N
STARLINK-1126 4.3 23:15:48 10° WNW 23:19:37 36° SW 23:19:39 36° SW
STARLINK-1119 3.6 23:18:00 10° WNW 23:22:10 81° NNE 23:23:58 33° ESE
STARLINK-1240 3.6 23:19:00 10° WSW 23:23:09 81° NNW 23:27:19 10° ENE
STARLINK-1082 4.4 23:20:54 10° WNW 23:24:30 34° SW 23:24:30 34° SW
Cosmos 2369 Rocket 2.5 23:23:30 36° SSE 23:25:23 49° ESE 23:30:50 10° NE
STARLINK-1114 3.6 23:22:58 10° WNW 23:27:08 85° NNE 23:28:45 36° ESE
STARLINK-1216 3.7 23:23:58 10° WSW 23:28:07 77° NNW 23:32:17 10° ENE
Cosmos 1842 3.4 23:29:49 45° SW 23:30:50 67° W 23:34:45 10° N
STARLINK-1130 (DARKSAT) 3.5 23:27:57 10° WNW 23:32:07 90° NNW 23:33:31 41° ESE
Cosmos 1943 Rocket 2.1 23:29:46 35° SSW 23:32:11 74° ESE 23:37:47 10° NNE
Okean 2 4.0 23:31:10 32° SW 23:32:43 49° WNW 23:36:46 10° N
STARLINK-1237 3.8 23:28:58 10° WSW 23:33:07 73° NNW 23:37:16 10° ENE
Thor Agena Rocket 3.9 23:28:46 10° N 23:34:01 64° WNW 23:36:58 26° SW
ATLAS CENTAUR R/B 4.1 23:34:13 10° N 23:34:39 10° NNE 23:35:07 10° NNE
SL-27 R/B 2.3 23:32:22 10° NNW 23:36:00 87° ENE 23:36:21 71° SSE
STARLINK-1084 3.5 23:32:55 10° WNW 23:37:06 86° SSW 23:38:18 45° ESE
STARLINK-1202 3.8 23:33:58 10° WSW 23:38:07 70° NNW 23:42:16 10° ENE
Meteor 1-21 4.2 23:35:58 35° S 23:38:28 90° SE 23:44:08 10° NNE
SWAS 4.4 23:34:57 10° NNW 23:39:18 79° WSW 23:40:15 53° SSE
BREEZE-M DEB 3.5 23:37:45 10° WSW 23:41:00 86° SSE 23:51:55 10° ENE
STARLINK-1098 3.5 23:37:56 10° WNW 23:42:06 81° SSW 23:43:07 50° SE
Cosmos 1900 4.4 23:37:26 10° NW 23:42:25 64° WSW 23:43:54 43° S
Cosmos 2266 Rocket 4.5 23:40:00 31° SE 23:42:30 47° E 23:48:16 10° NNE
Helios 1A 3.4 23:43:07 40° SE 23:44:18 55° ENE 23:48:25 10° N
Aureole 3 Rocket 4.0 23:39:05 10° NNW 23:44:24 74° W 23:47:49 32° S
STARLINK-1123 3.5 23:42:55 10° WNW 23:47:04 76° SSW 23:47:53 55° SE
Cosmos 1726 2.7 23:44:09 10° N 23:47:45 46° ENE 23:48:18 42° ESE
STARLINK-1246 4.0 23:43:57 10° WSW 23:48:04 64° NNW 23:52:12 10° ENE
Cosmos 1992 Rocket 4.5 23:46:54 37° SE 23:48:12 45° ESE 23:53:10 10° NE
COSMOS 2487 4.3 23:45:32 10° N 23:48:24 23° ENE 23:49:33 20° E
USA 215 3.4 23:48:13 33° SSE 23:51:04 54° SW 23:57:28 10° WNW
Cosmos 1455 Rocket 3.9 23:47:46 10° NNW 23:51:49 39° W 23:52:59 32° SW
STARLINK-1097 3.5 23:47:52 10° WNW 23:52:01 72° SSW 23:52:38 59° SSE
STARLINK-1224 4.1 23:48:58 10° W 23:53:05 61° NNW 23:57:12 10° ENE
BREEZE-M DEB (TANK) 4.4 23:49:07 10° WNW 23:56:06 27° WSW 23:57:01 25° SW
